Weather History for KIML - October, 2013

Change the Weather History Date:

Saturday, October 5, 2013

  Actual Average Record
Temperature  
Mean Temperature 44 °F 56 °F  
Max Temperature 52 °F 70 °F 96 °F (1947)
Min Temperature 35 °F 41 °F 22 °F (1898)
Degree Days  
Heating Degree Days 21 10  
Month to date heating degree days 55 45  
Cooling Degree Days 0 0  
Month to date cooling degree days 0 3  
Year to date cooling degree days 1166 960  
Moisture  
Dew Point 26 °F    
Average Humidity 55    
Maximum Humidity 75    
Minimum Humidity 34    
Precipitation  
Precipitation 0.00 in 0.04 in 1.95 in (1911)
Sea Level Pressure  
Sea Level Pressure 30.11 in    
Wind  
Wind Speed 23 mph (NW)    
Max Wind Speed 39 mph    
Max Gust Speed 48 mph    
Visibility 10 miles    
Events      
T = Trace of Precipitation, MM = Missing Value Source: NWS Daily Summary

Daily Weather History Graph

Daily Weather History Graph

Search for Another Location

Airport or City:

Trip Planner

Search our weather history database for the weather conditions in past years. The results will help you decide how hot, cold, wet, or windy it might be!

Date:

Astronomy

Oct. 05, 2013 Rise Set
Actual Time 6:47 AM MDT 6:21 PM MDT
Civil Twilight 6:20 AM MDT 6:48 PM MDT
Nautical Twilight 5:48 AM MDT 7:20 PM MDT
Astronomical Twilight 5:16 AM MDT 7:52 PM MDT
Moon 7:29 AM MDT (10/5) 6:41 PM MDT (10/5)
Length of Visible Light 12h 28m
Length of Day
11h 34m
New Moon, 1% of the Moon is Illuminated
Oct 5
New Moon
Oct 11
First Quarter
Oct 18
Full
Oct 26
Last Quarter
Nov 3
New

Hourly Weather History & Observations

Time (MDT) Temp. Windchill Dew Point Humidity Pressure Visibility Wind Dir Wind Speed Gust Speed Precip Events Conditions
12:53 AM 36.0 °F 24.7 °F 28.0 °F 73% 30.10 in 10.0 mi NW 21.9 mph 29.9 mph N/A   Clear
1:53 AM 35.1 °F 25.5 °F 27.0 °F 72% 30.12 in 10.0 mi WNW 15.0 mph 27.6 mph N/A   Clear
2:31 AM 35.6 °F 25.9 °F 28.4 °F 75% 30.06 in 10.0 mi WNW 16.1 mph 23.0 mph N/A   Mostly Cloudy
2:38 AM 35.6 °F 26.6 °F 28.4 °F 75% 30.06 in 10.0 mi WNW 13.8 mph 24.2 mph N/A   Mostly Cloudy
2:53 AM 37.0 °F 27.7 °F 28.0 °F 70% 30.10 in 10.0 mi WNW 16.1 mph 26.5 mph N/A   Overcast
3:53 AM 37.0 °F 25.4 °F 27.0 °F 67% 30.10 in 10.0 mi NW 25.3 mph 42.6 mph N/A   Mostly Cloudy
4:53 AM 36.0 °F 23.7 °F 26.1 °F 67% 30.10 in 10.0 mi NW 26.5 mph 36.8 mph N/A   Scattered Clouds
5:53 AM 37.0 °F 25.9 °F 26.1 °F 65% 30.11 in 10.0 mi NW 23.0 mph 33.4 mph N/A   Mostly Cloudy
6:53 AM 35.1 °F 22.5 °F 27.0 °F 72% 30.12 in 10.0 mi NW 26.5 mph 36.8 mph N/A   Clear
7:53 AM 37.0 °F 23.5 °F 27.0 °F 67% 30.12 in 10.0 mi NW 35.7 mph 46.0 mph N/A   Scattered Clouds
8:53 AM 39.0 °F 27.4 °F 26.1 °F 60% 30.14 in 10.0 mi NW 28.8 mph 46.0 mph N/A   Overcast
10:53 AM 41.0 °F 31.1 °F 25.0 °F 53% 30.16 in 10.0 mi NW 23.0 mph 36.8 mph N/A   Overcast
11:53 AM 42.1 °F 32.3 °F 25.0 °F 51% 30.16 in 10.0 mi NW 24.2 mph 35.7 mph N/A   Overcast
12:53 PM 45.0 °F 35.6 °F 25.0 °F 46% 30.11 in 10.0 mi NW 27.6 mph 41.4 mph N/A   Overcast
1:53 PM 48.9 °F - 25.0 °F 39% 30.08 in 10.0 mi NW 29.9 mph 43.7 mph N/A   Mostly Cloudy
2:53 PM 48.9 °F - 24.1 °F 38% 30.07 in 10.0 mi NW 31.1 mph 40.3 mph N/A   Mostly Cloudy
3:53 PM 48.0 °F - 21.9 °F 36% 30.08 in 10.0 mi NW 26.5 mph 40.3 mph N/A   Mostly Cloudy
4:53 PM 46.9 °F - 23.0 °F 39% 30.08 in 10.0 mi NNW 24.2 mph 33.4 mph N/A   Overcast
5:53 PM 46.0 °F 37.6 °F 24.1 °F 42% 30.08 in 10.0 mi NW 24.2 mph 34.5 mph N/A   Partly Cloudy
6:53 PM 44.1 °F 35.9 °F 25.0 °F 47% 30.11 in 10.0 mi NW 19.6 mph 25.3 mph N/A   Clear
7:53 PM 43.0 °F 35.1 °F 25.0 °F 49% 30.12 in 10.0 mi NW 17.3 mph 25.3 mph N/A   Clear
8:53 PM 42.1 °F 33.6 °F 25.0 °F 51% 30.12 in 10.0 mi NW 18.4 mph 28.8 mph N/A   Clear
9:53 PM 41.0 °F 31.9 °F 24.1 °F 51% 30.14 in 10.0 mi NW 19.6 mph 27.6 mph N/A   Clear
10:53 PM 39.0 °F 30.6 °F 25.0 °F 57% 30.16 in 10.0 mi NW 15.0 mph - N/A   Clear
11:53 PM 37.9 °F 28.9 °F 25.0 °F 60% 30.14 in 10.0 mi WNW 16.1 mph 25.3 mph N/A   Clear